• In Germany
  • List of Countries
  • For 7 days
  • Water Temperature
  • Satellite Maps
  • Weather Map
  • Weather Widgets
  • user-avatar
    Login

    Hourly Weather Berat

    Today, 20 October, Friday

    Time Temperature Precipitation Wind Pressure Humidity
    00:00 +18°C° 0 mm 1 mps 747 mmHg 81%
    01:00 +18°C° 0 mm 1 mps 747 mmHg 82%
    02:00 +18°C° 0 mm 1 mps 747 mmHg 82%
    03:00 +16°C° 0 mm 1 mps 747 mmHg 82%
    04:00 +16°C° 0 mm 1 mps 747 mmHg 82%
    05:00 +18°C° 0 mm 1 mps 747 mmHg 80%
    06:00 +18°C° 0 mm 1 mps 747 mmHg 77%
    07:00 +18°C° 0 mm 1 mps 747 mmHg 75%
    08:00 +20°C° 0 mm 1 mps 747 mmHg 67%
    09:00 +22°C° 0 mm 1 mps 747 mmHg 58%
    10:00 +24°C° 0 mm 1 mps 748 mmHg 50%
    11:00 +25°C° 0 mm 2 mps 747 mmHg 47%
    12:00 +25°C° 0 mm 2 mps 747 mmHg 44%
    13:00 +26°C° 0 mm 2 mps 747 mmHg 42%
    14:00 +25°C° 0 mm 2 mps 747 mmHg 46%
    15:00 +24°C° 0 mm 2 mps 747 mmHg 51%
    16:00 +24°C° 0 mm 2 mps 747 mmHg 55%
    17:00 +21°C° 0 mm 2 mps 747 mmHg 64%
    18:00 +21°C° 0 mm 1 mps 747 mmHg 73%
    19:00 +19°C° 0 mm 1 mps 747 mmHg 81%
    20:00 +18°C° 0 mm 1 mps 748 mmHg 83%
    21:00 +18°C° 0 mm 1 mps 748 mmHg 84%
    22:00 +18°C° 0 mm 1 mps 748 mmHg 86%
    23:00 +16°C° 0 mm 1 mps 748 mmHg 86%

    Tomorrow, 21 October, Saturday

    Time Temperature Precipitation Wind Pressure Humidity
    00:00 +16°C° 0 mm 1 mps 748 mmHg 86%
    01:00 +16°C° 0 mm 1 mps 748 mmHg 86%
    02:00 +16°C° 0 mm 1 mps 748 mmHg 86%
    03:00 +15°C° 0 mm 1 mps 748 mmHg 85%
    04:00 +15°C° 0 mm 1 mps 747 mmHg 85%
    05:00 +16°C° 0 mm 1 mps 747 mmHg 81%
    06:00 +16°C° 0 mm 1 mps 748 mmHg 78%
    07:00 +16°C° 0 mm 1 mps 748 mmHg 74%
    08:00 +20°C° 0 mm 1 mps 748 mmHg 64%
    09:00 +22°C° 0 mm 1 mps 748 mmHg 54%
    10:00 +24°C° 0 mm 2 mps 748 mmHg 44%
    11:00 +24°C° 0 mm 2 mps 747 mmHg 42%
    12:00 +25°C° 0 mm 3 mps 747 mmHg 40%
    13:00 +26°C° 0 mm 3 mps 747 mmHg 38%
    14:00 +25°C° 0 mm 3 mps 746 mmHg 44%
    15:00 +24°C° 0 mm 3 mps 746 mmHg 49%
    16:00 +22°C° 0 mm 3 mps 746 mmHg 54%
    17:00 +20°C° 0 mm 3 mps 746 mmHg 64%
    18:00 +19°C° 0 mm 2 mps 746 mmHg 74%
    19:00 +17°C° 0 mm 2 mps 746 mmHg 83%
    20:00 +16°C° 0 mm 2 mps 747 mmHg 84%
    21:00 +16°C° 0 mm 1 mps 747 mmHg 85%
    22:00 +16°C° 0 mm 1 mps 747 mmHg 86%
    23:00 +15°C° 0 mm 1 mps 746 mmHg 86%

    Day after tomorrow, 22 October, Sunday

    Time Temperature Precipitation Wind Pressure Humidity
    00:00 +15°C° 0 mm 1 mps 746 mmHg 85%
    01:00 +15°C° 0 mm 1 mps 746 mmHg 84%
    02:00 +15°C° 0 mm 1 mps 746 mmHg 81%
    03:00 +14°C° 0 mm 1 mps 746 mmHg 79%
    04:00 +14°C° 0 mm 1 mps 745 mmHg 77%
    05:00 +15°C° 0 mm 1 mps 745 mmHg 72%
    06:00 +15°C° 0 mm 1 mps 745 mmHg 68%
    07:00 +16°C° 0 mm 1 mps 746 mmHg 63%
    08:00 +19°C° 0 mm 1 mps 746 mmHg 58%
    09:00 +20°C° 0 mm 2 mps 746 mmHg 53%
    10:00 +23°C° 0 mm 2 mps 746 mmHg 49%
    11:00 +24°C° 0 mm 2 mps 745 mmHg 48%
    12:00 +24°C° 0 mm 3 mps 745 mmHg 48%
    13:00 +25°C° 0 mm 3 mps 744 mmHg 47%
    14:00 +24°C° 0 mm 3 mps 744 mmHg 52%
    15:00 +24°C° 0 mm 2 mps 744 mmHg 56%
    16:00 +23°C° 0 mm 2 mps 743 mmHg 60%
    17:00 +20°C° 0 mm 2 mps 743 mmHg 67%
    18:00 +20°C° 0 mm 1 mps 743 mmHg 74%
    19:00 +18°C° 0 mm 1 mps 743 mmHg 82%
    20:00 +18°C° 0 mm 1 mps 743 mmHg 80%
    21:00 +17°C° 0 mm 2 mps 743 mmHg 79%
    22:00 +17°C° 0 mm 2 mps 743 mmHg 78%
    23:00 +17°C° 0.1 mm 2 mps 743 mmHg 77%

    23 October, Monday

    Time Temperature Precipitation Wind Pressure Humidity
    00:00 +17°C° 0.1 mm 2 mps 742 mmHg 75%
    01:00 +17°C° 0.1 mm 2 mps 742 mmHg 74%
    02:00 +17°C° 0.2 mm 2 mps 741 mmHg 74%
    03:00 +16°C° 0.2 mm 2 mps 741 mmHg 75%
    04:00 +16°C° 0.2 mm 2 mps 741 mmHg 76%
    05:00 +16°C° 0 mm 2 mps 740 mmHg 76%
    06:00 +16°C° 0 mm 3 mps 740 mmHg 75%
    07:00 +17°C° 0 mm 3 mps 740 mmHg 75%
    08:00 +18°C° 0.1 mm 3 mps 740 mmHg 69%
    09:00 +20°C° 0.1 mm 3 mps 740 mmHg 63%
    10:00 +21°C° 0.1 mm 4 mps 739 mmHg 58%
    11:00 +21°C° 0.2 mm 4 mps 739 mmHg 58%
    12:00 +21°C° 0.2 mm 4 mps 738 mmHg 58%
    13:00 +21°C° 0.2 mm 4 mps 738 mmHg 58%
    14:00 +20°C° 0.5 mm 4 mps 737 mmHg 60%
    15:00 +19°C° 0.5 mm 4 mps 737 mmHg 63%
    16:00 +18°C° 0.5 mm 3 mps 737 mmHg 66%
    17:00 +17°C° 0.8 mm 3 mps 737 mmHg 73%
    18:00 +16°C° 0.8 mm 2 mps 737 mmHg 79%
    19:00 +15°C° 0.8 mm 2 mps 737 mmHg 86%
    20:00 +14°C° 0.3 mm 2 mps 737 mmHg 86%
    21:00 +14°C° 0.3 mm 2 mps 737 mmHg 87%
    22:00 +14°C° 0.3 mm 1 mps 737 mmHg 87%
    23:00 +14°C° 0.4 mm 2 mps 737 mmHg 85%

    24 October, Tuesday

    Time Temperature Precipitation Wind Pressure Humidity
    00:00 +13°C° 0.4 mm 3 mps 736 mmHg 84%
    01:00 +13°C° 0.4 mm 3 mps 736 mmHg 82%
    02:00 +12°C° 0.3 mm 3 mps 736 mmHg 81%
    03:00 +12°C° 0.3 mm 4 mps 736 mmHg 80%
    04:00 +12°C° 0.3 mm 4 mps 736 mmHg 80%
    05:00 +12°C° 0.1 mm 4 mps 736 mmHg 78%
    06:00 +12°C° 0.1 mm 4 mps 736 mmHg 77%
    07:00 +12°C° 0.1 mm 4 mps 737 mmHg 76%
    08:00 +13°C° 0 mm 4 mps 737 mmHg 70%
    09:00 +13°C° 0 mm 5 mps 737 mmHg 64%
    10:00 +14°C° 0 mm 5 mps 737 mmHg 58%
    11:00 +14°C° 0.1 mm 5 mps 736 mmHg 58%
    12:00 +15°C° 0.1 mm 6 mps 736 mmHg 58%
    13:00 +15°C° 0.1 mm 6 mps 736 mmHg 58%
    14:00 +14°C° 0.2 mm 6 mps 736 mmHg 61%
    15:00 +14°C° 0.2 mm 6 mps 736 mmHg 64%
    16:00 +13°C° 0.2 mm 6 mps 736 mmHg 66%
    17:00 +12°C° 0 mm 5 mps 736 mmHg 69%
    18:00 +12°C° 0 mm 5 mps 737 mmHg 71%
    19:00 +10°C° 0 mm 5 mps 737 mmHg 73%
    20:00 +11°C° 0.2 mm 4 mps 737 mmHg 74%
    21:00 +11°C° 0.2 mm 4 mps 737 mmHg 75%
    22:00 +11°C° 0.2 mm 4 mps 737 mmHg 77%
    23:00 +11°C° 0.2 mm 4 mps 737 mmHg 77%

    25 October, Wednesday

    Time Temperature Precipitation Wind Pressure Humidity
    00:00 +11°C° 0.2 mm 3 mps 737 mmHg 77%
    01:00 +11°C° 0.2 mm 3 mps 737 mmHg 77%
    02:00 +11°C° 0 mm 3 mps 737 mmHg 78%
    03:00 +11°C° 0 mm 3 mps 738 mmHg 78%
    04:00 +11°C° 0 mm 3 mps 738 mmHg 78%
    05:00 +12°C° 0 mm 3 mps 738 mmHg 78%
    06:00 +12°C° 0 mm 3 mps 739 mmHg 77%
    07:00 +12°C° 0 mm 3 mps 739 mmHg 77%
    08:00 +14°C° 0 mm 4 mps 739 mmHg 71%
    09:00 +17°C° 0 mm 4 mps 740 mmHg 64%
    10:00 +17°C° 0 mm 5 mps 740 mmHg 58%
    11:00 +19°C° 0 mm 5 mps 741 mmHg 56%
    12:00 +19°C° 0 mm 5 mps 741 mmHg 54%
    13:00 +20°C° 0 mm 5 mps 741 mmHg 52%
    14:00 +19°C° 0 mm 5 mps 742 mmHg 54%
    15:00 +19°C° 0 mm 5 mps 742 mmHg 56%
    16:00 +18°C° 0 mm 4 mps 742 mmHg 59%
    17:00 +17°C° 0 mm 4 mps 743 mmHg 61%
    18:00 +15°C° 0 mm 4 mps 744 mmHg 64%
    19:00 +15°C° 0 mm 4 mps 745 mmHg 66%
    20:00 +14°C° 0 mm 4 mps 745 mmHg 67%
    21:00 +14°C° 0 mm 4 mps 746 mmHg 68%
    22:00 +13°C° 0 mm 4 mps 746 mmHg 70%
    23:00 +13°C° 0 mm 4 mps 746 mmHg 71%
    Show more